Regional Weather Roundup
Issued by NWS

Home | Current Version | Previous Version | Text Only | Print | Product List | Glossary Off
Versions: 1 2 3 4 5 6 7 8 9 10 11 12 13 14 15 16 17 18 19 20 21 22 23 24 25 26 27 28 29 30 31 32 33 34 35 36 37 38 39 40 41 42 43 44 45 46 47 48 49 50

667
ASUS43 KMPX 192110
RWRMN
WEATHER ROUNDUP FOR MINNESOTA
NATIONAL WEATHER SERVICE TWIN CITIES/CHANHASSEN MN
300 PM CST FRI JAN 19 2018


NOTE: "FAIR" INDICATES FEW OR NO CLOUDS BELOW 12,000 FEET WITH NO
SIGNIFICANT WEATHER AND/OR OBSTRUCTIONS TO VISIBILITY. N/A MEANS
CURRENT SKY AND/OR WEATHER CONDITIONS ARE NOT AVAILABLE.

MNZ060>063-068>070-192200-
   Twin Cities Metro

CITY           SKY/WX    TMP DP  RH WIND       PRES   REMARKS
TWIN CITIES    PTSUNNY   42  30  62 SW10      29.49S
ST PAUL        FAIR      41  29  62 W8        29.50R
CRYSTAL        FAIR      42  28  57 W8        29.48R
BLAINE         PTSUNNY   43  30  61 W10       29.48R
LAKEVILLE      FAIR      39  30  70 W8        29.50R
EDEN PRAIRIE   FAIR      43  31  62 SW13      29.48S
SOUTH ST PAUL  FAIR      43  29  58 SW7       29.49S
LAKE ELMO      FAIR      41  30  65 W13G18    29.50R
$$
MNZ001>005-007-008-013>017-022>024-027-028-192200-
   Northwest Minnesota

CITY           SKY/WX    TMP DP  RH WIND       PRES   REMARKS
BEMIDJI        FAIR      41  29  62 W17       29.44R
HALLOCK        FAIR      36  34  93 W5        29.46R
ROSEAU         FAIR      39  34  81 W13G21    29.41R
WARROAD        FAIR      39  34  81 W14G21    29.40R
THIEF RVR FALL FAIR      38  31  76 W14       29.47R
CROOKSTON      FAIR      36  32  87 W8        29.49S
FOSSTON        FAIR      37  28  70 W7        29.48R
DETROIT LAKES  FAIR      39  32  75 NW17G23   29.50R
MOORHEAD       FAIR      39  32  75 NW12      29.52S
PARK RAPIDS    FAIR      43  29  57 W15       29.45R
MAHNOMEN       MOCLDY    37  31  77 W12       29.48S
$$
MNZ006-009>011-018-025>026-192200-
   North Central Minnesota

CITY           SKY/WX    TMP DP  RH WIND       PRES   REMARKS
BAUDETTE       FAIR      41  31  67 W18G28    29.36R
FLAG ISLAND    FAIR      39  30  70 W22       29.35R
INTL FALLS     FAIR      43  30  60 W10G16    29.33S
WASKISH        FAIR      37  32  81 SW12      29.41R
BIG FORK       FAIR      43  30  61 SW8       29.35F
LONGVILLE      FAIR      46  27  46 W7        29.42F
GRAND RAPIDS   FAIR      44  28  53 NW13      29.42S
CRANE LAKE     CLOUDY    39  30  70 CALM      29.36R
ORR            PTSUNNY   41  27  56 SW6       29.31F
COOK           CLOUDY    39  30  70 SW6       29.36F
WALKER         FAIR      46  28  50 W8        29.42F
$$
MNZ012-019>021-037-192200-
   Northeast Minnesota

CITY           SKY/WX    TMP DP  RH WIND       PRES   REMARKS
DULUTH         PTSUNNY   39  29  67 W12       29.39R
ELY            FAIR      37  28  70 SW5       29.36R
HIBBING        FAIR      39  28  64 W5        29.40R
EVELETH        FAIR      37  27  65 SW7       29.40R
DULUTH HARBOR  FAIR      39  30  70 SW9       29.42R
TWO HARBORS    FAIR      45  30  57 W6        29.36R
GRAND MARAIS     N/A     36  32  85 W9        29.34F
G MARAIS ARPRT PTSUNNY   37  27  65 W5        29.32F
$$
MNZ029>031-032-039>041-046>048-054>057-064-192200-
   West Central Minnesota

CITY           SKY/WX    TMP DP  RH WIND       PRES   REMARKS
FERGUS FALLS   FAIR      36  30  80 NW7       29.51R
WHEATON        MOSUNNY   45  30  57 NW6       29.54R
MORRIS         MOSUNNY   45  34  65 NW13      29.50R
ALEXANDRIA     FAIR      43  31  62 NW10      29.49R
ELBOW LAKE     FAIR      38  32  79 W13       29.52R
WADENA         FAIR      41  28  60 W7        29.47R
GLENWOOD       FAIR      43  34  70 NW8       29.48S
APPLETON       CLOUDY    48  34  57 W6        29.51R
BENSON         SUNNY     45  34  65 N6        29.51R
ORTONVILLE     MOSUNNY   48  30  49 N14G20    29.52R
MADISON        SUNNY     48  34  57 NW8       29.52S
WILLMAR        FAIR      46  34  61 NW7       29.51R
$$
MNZ033>034-036-042>043-049>051-058-059-192200-
   Central Minnesota

CITY           SKY/WX    TMP DP  RH WIND       PRES   REMARKS
ST CLOUD       FAIR      44  31  60 W3        29.46S
SAUK CENTRE      N/A     43  31  63 W7        29.47S
PAYNESVILLE    FAIR      47  33  57 NW8       29.48R
AITKIN         FAIR      43  27  52 W5        29.43R
PINE RIVER     FAIR      45  27  49 NW5       29.48S
BRAINERD       FAIR      43  29  57 NW6       29.45R
STAPLES        FAIR      39  28  65 W8        29.47R
LONG PRAIRIE   FAIR      43  30  61 S3        29.46S
LITTLE FALLS     N/A    N/A N/A N/A CALM        N/A
LITCHFIELD     FAIR      46  34  61 NW3       29.48S
BUFFALO        FAIR      42  31  66 SW3       29.48F
MAPLE LAKE     FAIR      44  33  65 MISG      29.48S
HUTCHINSON     FAIR      47  35  63 W10       29.50R
$$
MNZ037-044-045-052-053-192200-
   East Central Minnesota

CITY           SKY/WX    TMP DP  RH WIND       PRES   REMARKS
PRINCETON      FAIR      45  30  57 SW5       29.47R
MORA           FAIR      39  28  65 SW7       29.47R
CAMBRIDGE        N/A     43  28  56 S7        29.47S
RUSH CITY      FAIR      42  27  57 S9        29.46S
MOOSE LAKE     FAIR      41  28  60 SW8       29.42R
HINCKLEY       FAIR      39  30  70 S5        29.45R
CLOQUET        FAIR      39  27  60 SW3       29.41R
MCGREGOR       FAIR      43  30  61 W3        29.43R
$$
MNZ071>073-080-081-089-090-097-098-192200-
   Southwest Minnesota

CITY           SKY/WX    TMP DP  RH WIND       PRES   REMARKS
MONTEVIDEO     SUNNY     52  34  50 N9        29.51R
GRANITE FALLS  SUNNY     50  35  55 W9        29.53S
CANBY          MOSUNNY   51  31  47 NW8       29.54S
MARSHALL       CLOUDY    47  33  58 NW13      29.53R
REDWOOD FALLS  SUNNY     46  34  62 W12       29.52R
OLIVIA         SUNNY     45  32  61 W9        29.50R
PIPESTONE      CLOUDY    41  34  75 NW9       29.54R
WINDOM         CLOUDY    45  27  49 SW9       29.52R
WORTHINGTON    CLOUDY    46  35  65 W9        29.53R
JACKSON        CLOUDY    48  34  57 W7        29.53R
TRACY          MOSUNNY   46  36  68 W7        29.52R
SLAYTON        CLOUDY    42  34  74 W12       29.54R
$$
MNZ065>067-074>077-082>085-091>093-192200-
   South Central Minnesota

CITY           SKY/WX    TMP DP  RH WIND       PRES   REMARKS
MANKATO        FAIR      43  33  68 SW10      29.50S
NEW ULM        SUNNY     46  34  61 W8        29.50S
ST JAMES       CLOUDY    46  34  61 SW9       29.53S
FAIRMONT       CLOUDY    48  34  58 SW12      29.52S
GLENCOE        FAIR      46  36  66 W7        29.49R
FARIBAULT      FAIR      39  30  70 S9        29.52R
OWATONNA       FAIR      39  30  70 SW14      29.52R
WASECA         FAIR      39  32  75 SW9       29.54R
ALBERT LEA     FAIR      43  28  56 SW10      29.53R
$$
MNZ078>079-086>088-094>096-192200-
   Southeast Minnesota

CITY           SKY/WX    TMP DP  RH WIND       PRES   REMARKS
ROCHESTER      FAIR      38  30  73 SW17      29.52R
RED WING       FAIR      41  27  56 SW10      29.51R
STANTON        FAIR      40  31  68 SW13      29.50R
DODGE CENTER   FAIR      37  30  75 SW14      29.51S
WINONA         FAIR      41  28  60 SW3       29.52R
AUSTIN         FAIR      41  30  65 SW14      29.52F
PRESTON        FAIR      39  28  64 S20G25    29.53S
$$
ABBREVIATIONS USED IN REMARKS
   TC - TEMPERATURES IN CELSIUS
  WCI - WIND CHILL INDEX
   HX - HEAT INDEX
  VSB - VISIBILITY
$$




USA.gov is the U.S. government's official web portal to all federal, state and local government web resources and services.